Cosmos 1634 Rocket - Orbit

View from above orbital plane
View from above orbital plane
View from above satellite
View from above satellite

Ground track
Ground track

The orbit data is extracted from the following two-line orbital elements,

1 15598U 85022B   13141.55831449 -.00000000  00000-0 -15756-4 0  4247
2 15598 082.9360 132.7597 0020854 310.9539 199.1293 13.76450392415814
Epoch (UTC): 21 May 2013 13:23:58
Eccentricity: 0.0020854
inclination: 82.9360°
perigee height: 961 km
apogee height: 992 km
right ascension of ascending node: 132.7597°
argument of perigee: 310.9539°
revolutions per day: 13.76450392
mean anomaly at epoch: 199.1293°
orbit number at epoch: 41581

The dashed part of the orbit path shows where the satellite is in the earth's shadow,  

Developed and maintained by Chris Peat, Heavens-Above GmbH. Please read the updated FAQ before sending e-mail. Imprint. DLR